This is the latest recevied weather packets stored in our database for station/object DB8NZ-11. If no packets are shown the sender has not sent any weather packets the latest 10 day(s).
| Time | Temp. | Humidity | Pressure | Rain* | Wind** | Luminosity | Snow |
|---|---|---|---|---|---|---|---|
| 1777852243 | 15° C | 52% | 1019.4 hPa | - | - | - | - |
| 1777851343 | 15° C | 52% | 1019.6 hPa | - | - | - | - |
| 1777850443 | 15.56° C | 50% | 1019.6 hPa | - | - | - | - |
| 1777849542 | 16.11° C | 49% | 1019.5 hPa | - | - | - | - |
| 1777848642 | 16.67° C | 45% | 1019.4 hPa | - | - | - | - |
| 1777847742 | 17.78° C | 42% | 1019.3 hPa | - | - | - | - |
| 1777846842 | 18.33° C | 40% | 1019.2 hPa | - | - | - | - |
| 1777845942 | 18.89° C | 37% | 1019.1 hPa | - | - | - | - |
| 1777845042 | 18.89° C | 36% | 1019 hPa | - | - | - | - |
| 1777844142 | 19.44° C | 36% | 1019.2 hPa | - | - | - | - |
| 1777843242 | 20° C | 35% | 1018.9 hPa | - | - | - | - |
| 1777842342 | 20° C | 35% | 1018.7 hPa | - | - | - | - |
| 1777841442 | 20° C | 35% | 1018.4 hPa | - | - | - | - |
| 1777840542 | 19.44° C | 37% | 1018.3 hPa | - | - | - | - |
| 1777839642 | 19.44° C | 39% | 1018.2 hPa | - | - | - | - |
| 1777838742 | 19.44° C | 40% | 1017.9 hPa | - | - | - | - |
| 1777837841 | 20° C | 38% | 1017.7 hPa | - | - | - | - |
| 1777836941 | 20.56° C | 41% | 1017.5 hPa | - | - | - | - |
| 1777836041 | 21.11° C | 39% | 1017.1 hPa | - | - | - | - |
| 1777835141 | 21.11° C | 39% | 1017 hPa | - | - | - | - |
| 1777834241 | 21.11° C | 39% | 1016.9 hPa | - | - | - | - |
| 1777833341 | 21.67° C | 38% | 1017 hPa | - | - | - | - |
| 1777832441 | 22.22° C | 38% | 1016.9 hPa | - | - | - | - |
| 1777831541 | 23.33° C | 38% | 1016.7 hPa | - | - | - | - |
| 1777830641 | 23.89° C | 36% | 1016.6 hPa | - | - | - | - |
* Rain since midnight (hover to see other rain measurements)
** Current wind speed in m/s (hover to see current wind gust speed)